Wind_Speed
78 76 73 69 65 61 59 58 56 51 49 49 50 49 40 41 43 39 36 36 36 36 33 33 32 32 31 30 29 29 33 37 39 39 37 36 33 37 39 40 41 39 38 39
78 77 74 72 71 68 65 64 62 59 55 55 54 54 48 46 46 44 43 41 40 40 35 34 37 38 36 34 35 33 32 35 40 44 44 43 44 41 39 41 43 44 46 46
76 72 74 73 72 71 69 67 66 64 62 59 61 61 56 49 50 49 49 46 45 42 39 41 41 40 39 37 36 39 38 37 38 41 44 46 46 44 45 44 45 48 50 50
77 73 74 74 72 71 71 67 67 65 65 65 62 67 59 58 55 54 52 51 49 48 47 47 45 44 43 41 40 41 43 43 41 41 43 45 46 47 46 49 47 47 49 51
79 76 76 76 71 70 67 66 67 67 66 69 68 71 69 63 60 58 54 54 54 54 53 52 51 49 48 47 46 44 45 46 46 45 44 46 48 49 49 50 52 49 49 52
77 75 70 72 69 68 67 70 68 68 69 75 71 73 72 68 60 58 57 57 59 58 56 55 56 57 55 50 48 47 48 49 49 49 50 49 49 52 54 56 54 55 55 53
79 80 76 75 76 72 69 71 73 75 77 81 73 77 70 68 65 62 59 59 60 61 59 59 59 59 59 56 52 50 51 53 53 53 53 53 53 53 54 57 58 57 57 55
72 78 79 78 78 75 72 72 75 77 79 79 77 82 69 70 71 68 64 61 63 64 63 60 59 59 59 59 55 54 55 56 56 56 55 54 55 57 56 57 58 58 58 56
69 73 69 69 67 64 66 70 68 71 74 76 78 80 76 72 72 68 65 62 61 59 60 59 59 59 59 55 55 56 58 60 60 58 58 58 59 59 61 61 61 62 62 61
55 53 55 59 60 63 67 65 62 67 71 74 76 79 78 74 71 69 63 58 55 51 48 52 52 52 53 54 56 58 60 62 62 62 62 61 62 61 62 63 64 64 66 67
55 55 55 53 59 61 56 56 57 63 61 65 68 71 71 68 64 63 62 58 54 52 53 54 53 54 55 56 56 59 62 64 66 65 66 64 63 63 63 65 66 66 64 66
59 60 52 50 49 52 54 51 47 51 55 63 65 63 59 59 55 51 49 51 52 53 55 54 54 54 57 58 59 61 62 64 65 63 63 60 60 61 63 65 64 64 63 64
57 62 60 57 55 55 57 56 56 52 51 59 59 55 50 47 42 46 49 52 54 53 53 52 50 52 54 57 58 56 56 58 59 61 61 59 58 57 61 64 62 60 61 60
57 60 59 56 50 45 43 47 50 52 56 55 61 58 52 46 46 47 50 53 52 51 52 54 52 51 50 49 49 49 51 51 54 53 54 56 58 59 61 63 64 64 66 67
59 59 52 48 48 55 44 43 44 49 47 56 50 52 45 47 51 56 56 53 50 49 48 47 48 47 45 49 48 50 52 53 55 57 57 57 58 59 60 63 65 66 67 67
46 49 56 60 53 51 52 50 45 46 48 50 50 49 43 51 58 57 54 52 51 50 50 51 51 53 52 53 51 54 59 64 55 53 54 56 59 59 61 61 64 64 65 64
48 43 47 53 58 58 56 46 47 44 45 47 51 46 48 50 51 51 51 51 51 51 51 52 54 55 56 56 53 59 60 59 61 61 61 62 62 63 65 64 63 63 64 65
51 44 43 33 35 45 46 47 46 44 44 44 46 47 51 54 55 54 53 54 55 56 57 57 56 57 58 59 57 56 60 62 64 63 63 64 64 65 64 64 65 64 67 68
37 38 37 35 37 36 38 45 44 40 37 37 41 44 48 51 52 53 54 54 54 53 54 55 56 57 58 60 61 60 59 59 61 64 64 64 64 64 64 65 67 69 69 70
44 44 38 35 36 38 35 37 41 45 43 39 40 40 42 45 47 48 50 51 53 55 57 57 57 57 58 60 60 61 61 61 61 62 62 63 63 63 63 62 61 61 60 59
41 38 38 36 38 37 38 39 43 47 42 37 36 36 39 41 42 43 44 46 49 53 55 56 57 58 58 58 58 59 60 60 60 59 59 58 58 58 60 60 61 61 62 62
45 42 41 47 43 41 41 45 45 38 37 36 36 39 40 42 42 43 47 49 50 51 53 55 57 57 57 57 57 57 57 57 57 58 57 57 58 61 63 65 67 68 70 72
56 47 50 47 41 39 36 41 36 31 31 32 35 36 38 39 41 45 47 47 48 50 52 53 53 53 54 55 56 56 57 58 60 61 62 63 64 66 69 71 73 76 79 82
46 45 49 50 49 47 48 39 39 37 37 38 39 39 39 43 44 46 47 48 50 52 53 54 55 56 58 60 61 62 63 64 66 68 70 71 73 74 76 78 80 83 86 89
50 50 51 46 45 48 49 53 45 41 39 37 39 38 44 46 48 48 49 51 53 55 56 57 59 60 62 64 65 67 70 73 74 75 77 79 79 81 82 84 88 91 93 93
33 41 34 30 32 36 39 40 42 45 45 45 45 45 45 51 56 56 57 55 55 58 60 61 63 64 66 69 71 73 76 77 80 82 84 85 87 88 90 91 92 94 94 95
Wind_Direction
245 247 252 255 256 255 256 257 258 256 253 252 256 260 255 256 260 260 262 263 263 262 262 266 269 269 271 275 273 269 267 266 271 274 276 280 276 282 284 279 275 274 272 269
245 250 252 251 251 251 252 254 255 255 254 254 257 261 259 255 257 260 258 258 260 261 260 262 265 268 271 272 277 278 273 270 269 269 272 272 278 283 283 281 278 275 272 271
247 249 249 249 250 251 253 254 255 256 255 254 256 258 262 259 257 258 259 258 260 260 258 259 261 265 267 270 272 277 278 276 273 272 273 274 275 277 278 281 281 278 277 276
245 244 244 245 247 249 249 252 254 254 255 256 255 260 258 260 258 259 260 262 261 261 259 261 263 265 268 269 269 269 271 273 273 272 273 273 273 274 274 276 276 278 277 275
248 246 246 248 250 248 252 251 252 253 252 253 253 256 262 258 258 261 262 261 261 262 264 266 267 269 270 270 269 267 268 270 272 273 272 270 269 269 270 269 271 270 272 274
243 242 242 246 246 246 245 247 247 248 249 248 256 255 258 262 259 258 260 261 261 262 264 265 267 268 269 268 267 266 265 265 266 267 267 267 267 267 268 267 267 270 271 273
240 242 243 245 247 245 243 246 247 246 246 254 253 252 260 263 264 263 261 261 263 264 264 264 264 265 266 268 266 262 260 263 265 267 267 267 266 265 267 269 270 269 272 271
243 244 246 245 247 250 250 247 248 250 252 255 254 255 261 262 266 267 265 263 263 264 264 264 265 266 266 266 264 259 258 258 261 262 262 262 263 265 263 263 264 265 267 268
246 245 244 245 245 246 250 248 250 250 253 255 255 258 258 258 261 263 265 264 264 263 265 268 269 267 266 263 260 255 254 257 257 257 258 258 260 260 261 261 260 261 261 260
244 242 242 244 245 246 247 247 245 246 248 250 254 257 259 259 260 262 263 265 266 265 260 264 265 262 257 254 251 251 253 256 258 259 260 258 258 259 259 260 260 259 259 261
237 244 246 242 244 248 246 247 245 245 245 251 255 257 259 261 263 262 262 262 258 256 258 257 254 254 253 251 253 253 254 255 257 258 259 258 255 256 256 256 258 259 259 260
244 244 238 245 249 244 244 243 246 249 252 251 251 255 260 260 259 257 254 250 250 252 255 254 254 253 253 253 252 251 253 255 257 257 257 254 254 255 256 256 256 258 258 258
233 233 245 246 240 232 235 238 240 241 242 244 247 249 253 252 251 249 248 246 247 248 251 255 257 255 256 255 255 254 252 252 254 255 255 254 255 256 257 258 259 261 260 261
237 241 242 243 248 239 247 249 250 248 244 248 248 249 243 240 242 245 247 246 247 250 252 255 258 259 256 257 258 256 256 256 257 258 261 262 262 261 261 260 260 261 262 262
231 238 232 234 241 240 248 241 244 247 249 249 252 252 244 242 244 247 248 250 254 255 254 254 256 251 250 251 255 256 260 253 259 265 267 265 264 265 267 268 269 269 268 269
236 239 238 234 235 245 243 232 240 246 246 244 242 244 239 239 241 246 252 254 253 254 257 258 260 261 260 254 255 256 257 261 261 258 264 267 269 270 270 271 272 272 273 273
240 237 235 235 237 241 241 233 244 248 249 252 249 248 239 240 244 248 250 252 254 256 259 260 263 265 266 266 263 259 263 267 268 275 275 276 276 275 275 276 275 274 273 273
227 230 233 225 226 238 233 234 243 246 247 249 252 247 244 244 246 249 252 254 256 258 261 263 264 265 265 265 266 265 266 268 271 274 276 278 279 278 277 276 275 274 275 276
211 219 228 232 233 238 232 230 239 246 252 251 254 254 251 249 253 255 256 257 258 260 260 260 262 265 268 269 270 271 271 272 274 275 276 276 275 274 273 273 273 273 273 275
234 241 247 238 238 245 239 243 245 245 247 252 251 254 255 256 257 258 258 258 259 260 261 262 263 264 266 268 269 271 272 272 273 273 274 274 274 274 274 274 273 272 272 273
230 231 238 230 236 241 251 253 246 247 249 252 256 257 258 260 260 259 259 258 256 257 258 260 261 263 265 269 271 272 273 274 274 274 274 274 273 272 272 271 271 270 271 273
240 230 232 231 235 237 249 254 247 248 244 247 249 254 256 256 258 258 257 256 256 258 260 262 264 267 269 269 270 270 271 271 272 271 272 272 272 272 272 273 273 275 277 278
233 231 237 245 252 261 252 243 240 240 241 247 254 257 258 259 259 260 260 261 261 262 265 266 268 269 270 270 270 271 273 274 275 275 276 277 276 276 277 278 279 280 281 282
240 241 243 247 249 251 250 234 238 245 253 255 259 262 263 262 261 261 262 263 264 265 266 269 271 272 273 274 276 277 277 277 277 278 277 277 277 277 278 279 280 280 281 283
238 239 244 245 245 247 247 251 259 255 251 253 257 261 257 258 257 258 259 260 262 265 267 267 268 269 271 273 274 275 276 277 278 278 278 278 279 279 278 278 279 281 284 285
235 240 241 239 236 237 242 248 252 253 253 256 259 258 262 262 259 260 261 262 264 264 266 267 269 270 273 274 275 276 277 277 277 278 279 279 279 280 280 281 281 283 284 286
Height
5735 5742 5754 5764 5768 5772 5777 5781 5785 5791 5794 5795 5796 5798 5812 5813 5814 5817 5820 5821 5822 5822 5824 5825 5828 5830 5832 5834 5835 5838 5838 5839 5839 5839 5840 5841 5841 5841 5842 5841 5840 5840 5839 5837
5723 5736 5743 5748 5752 5757 5762 5768 5772 5777 5780 5781 5785 5788 5798 5804 5807 5809 5810 5810 5812 5812 5816 5818 5817 5820 5823 5825 5826 5828 5830 5830 5831 5831 5831 5833 5834 5836 5835 5834 5833 5831 5829 5828
5707 5726 5726 5732 5739 5745 5751 5756 5760 5763 5766 5769 5769 5774 5782 5794 5796 5798 5800 5803 5802 5804 5807 5806 5807 5810 5813 5817 5819 5818 5820 5821 5821 5822 5822 5824 5825 5827 5827 5827 5825 5823 5822 5820
5689 5706 5708 5714 5724 5731 5735 5743 5744 5749 5751 5754 5758 5759 5774 5779 5784 5787 5790 5791 5792 5792 5794 5796 5799 5801 5804 5806 5809 5810 5810 5811 5811 5811 5812 5813 5814 5816 5816 5816 5815 5814 5812 5811
5687 5690 5691 5701 5719 5718 5728 5729 5732 5733 5734 5733 5745 5745 5759 5767 5773 5777 5780 5780 5779 5779 5783 5785 5788 5791 5794 5796 5798 5799 5799 5800 5801 5802 5802 5802 5802 5803 5803 5803 5802 5802 5802 5800
5662 5672 5678 5693 5699 5704 5711 5710 5713 5715 5714 5706 5737 5727 5746 5752 5764 5769 5770 5768 5764 5767 5772 5775 5777 5778 5780 5783 5785 5787 5788 5787 5787 5788 5788 5789 5790 5789 5790 5790 5790 5790 5791 5791
5646 5657 5669 5678 5682 5688 5693 5697 5696 5692 5690 5699 5718 5704 5737 5743 5749 5754 5756 5754 5753 5754 5757 5760 5763 5765 5768 5770 5772 5773 5775 5776 5777 5777 5777 5776 5777 5777 5779 5779 5780 5780 5781 5781
5633 5644 5657 5667 5669 5674 5679 5682 5681 5678 5683 5692 5697 5687 5728 5733 5733 5736 5739 5739 5739 5738 5740 5744 5748 5751 5754 5756 5757 5759 5760 5762 5763 5764 5763 5764 5763 5763 5764 5765 5767 5767 5769 5770
5625 5631 5648 5652 5655 5661 5666 5659 5675 5670 5669 5670 5679 5684 5706 5718 5719 5719 5719 5722 5722 5722 5726 5729 5733 5736 5737 5739 5741 5743 5744 5745 5746 5748 5749 5749 5750 5749 5749 5749 5751 5752 5752 5751
5613 5620 5630 5635 5638 5645 5646 5652 5655 5653 5653 5653 5659 5667 5685 5703 5706 5704 5705 5705 5705 5706 5710 5713 5715 5717 5719 5722 5724 5727 5729 5730 5732 5734 5735 5735 5736 5735 5735 5733 5733 5735 5736 5736
5603 5609 5617 5620 5625 5636 5636 5636 5639 5642 5641 5642 5647 5655 5675 5689 5690 5690 5690 5689 5690 5690 5693 5696 5698 5700 5704 5708 5711 5713 5715 5716 5716 5717 5717 5718 5719 5719 5718 5718 5718 5718 5719 5720
5592 5595 5600 5610 5619 5621 5623 5627 5629 5628 5634 5634 5636 5644 5665 5675 5675 5673 5674 5674 5676 5678 5679 5680 5683 5686 5690 5694 5696 5697 5698 5699 5699 5700 5701 5701 5702 5702 5702 5701 5701 5702 5703 5704
5579 5581 5587 5594 5601 5602 5604 5613 5616 5618 5621 5619 5627 5636 5654 5659 5662 5660 5659 5659 5661 5664 5667 5669 5671 5674 5676 5678 5679 5680 5681 5682 5683 5684 5686 5686 5686 5686 5687 5687 5688 5688 5688 5688
5569 5571 5576 5584 5596 5600 5602 5607 5610 5609 5608 5616 5613 5628 5641 5645 5647 5645 5644 5648 5650 5653 5656 5657 5658 5660 5662 5664 5667 5668 5669 5671 5672 5672 5672 5672 5673 5673 5673 5673 5673 5672 5673 5673
5555 5558 5569 5578 5582 5585 5592 5594 5596 5594 5602 5601 5614 5615 5632 5635 5634 5629 5630 5636 5638 5641 5642 5644 5646 5649 5651 5653 5653 5655 5656 5657 5658 5658 5658 5658 5659 5658 5658 5657 5657 5658 5657 5657
5545 5550 5556 5563 5569 5573 5576 5580 5584 5588 5592 5591 5600 5603 5616 5615 5611 5615 5621 5625 5628 5630 5631 5633 5634 5635 5638 5640 5641 5643 5643 5643 5643 5642 5643 5644 5645 5644 5644 5643 5643 5642 5642 5643
5538 5544 5547 5551 5559 5561 5561 5577 5576 5581 5583 5587 5587 5601 5600 5601 5604 5606 5609 5613 5616 5619 5620 5621 5621 5622 5624 5626 5629 5629 5627 5627 5627 5628 5627 5628 5629 5629 5628 5627 5627 5626 5626 5626
5531 5537 5539 5542 5546 5545 5563 5565 5569 5570 5574 5576 5579 5585 5587 5589 5591 5594 5597 5601 5604 5606 5608 5608 5608 5609 5610 5611 5613 5613 5613 5613 5612 5612 5611 5611 5611 5610 5610 5609 5608 5608 5608 5608
5519 5525 5527 5530 5535 5541 5548 5554 5558 5562 5568 5569 5571 5573 5575 5579 5581 5584 5587 5589 5590 5593 5594 5594 5594 5594 5595 5595 5595 5595 5596 5597 5597 5596 5594 5593 5592 5592 5591 5590 5590 5589 5589 5588
5509 5514 5520 5524 5527 5532 5545 5547 5549 5552 5554 5560 5562 5563 5565 5567 5570 5574 5575 5577 5577 5578 5579 5579 5580 5580 5580 5580 5581 5581 5581 5580 5580 5578 5577 5576 5575 5574 5573 5571 5569 5569 5568 5568
5504 5508 5512 5516 5520 5527 5535 5537 5539 5541 5556 5553 5554 5556 5557 5558 5559 5560 5561 5563 5564 5565 5565 5566 5566 5565 5565 5566 5566 5566 5565 5563 5563 5562 5561 5559 5558 5557 5556 5555 5552 5551 5550 5550
5499 5503 5506 5511 5515 5521 5528 5528 5532 5540 5540 5542 5543 5544 5545 5546 5547 5548 5549 5549 5550 5552 5553 5553 5552 5552 5552 5552 5551 5550 5550 5549 5547 5546 5544 5544 5542 5541 5539 5538 5535 5532 5529 5528
5488 5495 5501 5505 5510 5516 5518 5522 5525 5527 5529 5530 5532 5533 5534 5535 5536 5537 5538 5538 5538 5539 5539 5539 5538 5537 5537 5537 5536 5535 5534 5532 5530 5528 5526 5525 5524 5521 5519 5517 5514 5510 5506 5503
5480 5486 5490 5497 5502 5506 5510 5511 5514 5518 5521 5522 5523 5523 5524 5524 5525 5525 5525 5525 5525 5525 5525 5525 5524 5522 5521 5520 5519 5518 5516 5515 5512 5509 5506 5504 5503 5501 5497 5495 5491 5487 5481 5477
5474 5478 5483 5486 5491 5496 5499 5503 5505 5507 5509 5511 5513 5514 5514 5514 5514 5513 5513 5513 5513 5513 5513 5512 5511 5509 5507 5505 5503 5501 5498 5496 5493 5490 5486 5483 5480 5477 5474 5471 5467 5462 5455 5449
5469 5473 5475 5480 5484 5487 5489 5490 5493 5495 5497 5500 5501 5502 5503 5503 5502 5501 5501 5500 5500 5499 5498 5497 5495 5494 5491 5488 5485 5482 5479 5476 5472 5469 5463 5459 5455 5451 5447 5444 5443 5436 5428 5422